Regional Weather Roundup
Issued by NWS

Home | Current Version | Previous Version | Graphics & Text | Print | Product List | Glossary On
Versions: 1 2 3 4 5 6 7 8 9 10 11 12 13 14 15 16 17 18 19 20 21 22 23 24 25 26 27 28 29 30 31 32 33 34 35 36 37 38 39 40 41 42 43 44 45 46 47 48 49 50
063
ASUS43 KDMX 271806
RWRIA

WEATHER ROUNDUP FOR IOWA
NATIONAL WEATHER SERVICE DES MOINES IA
100 PM CDT MON MAR 27 2017

NOTE: "FAIR" INDICATES FEW OR NO CLOUDS BELOW 12,000 FEET WITH NO
SIGNIFICANT WEATHER AND/OR OBSTRUCTIONS TO VISIBILITY.

* - THESE STATIONS ARE NOT NWS STATIONS...THUS NOT UNDER NWS
QUALITY CONTROL.  THEY ALSO DO NOT REPORT WEATHER SUCH
AS PRECIPITATION OR FOG.

IAZ001>003-012>014-020>022-031>034-043>046-271900-
   NORTHWEST IOWA

CITY           SKY/WX    TMP DP  RH WIND       PRES   REMARKS
CARROLL *      CLOUDY    48  41  76 N14       29.97S
CHEROKEE *     CLOUDY    49  38  67 NE5       29.99R
DENISON *      CLOUDY    48  41  76 NE7       29.99S
LE MARS *      CLOUDY    52  39  62 CALM      29.99S
ORANGE CITY *  CLOUDY    48  39  71 NE5       29.98S
SHELDON *      CLOUDY    46 N/A N/A NE8       29.97S
SIOUX CITY     CLOUDY    50  40  68 S3        29.98S
6HR MIN TEMP:  42; 6HR MAX TEMP:  52;

SPENCER        CLOUDY    47  38  71 N10       29.98S
6HR MIN TEMP:  35; 6HR MAX TEMP:  47;

STORM LAKE *     N/A     46  39  76 NE9       29.98R
$$

IAZ055>058-069>071-079>083-090>094-271900-
   SOUTHWEST IOWA

CITY           SKY/WX    TMP DP  RH WIND       PRES   REMARKS
ATLANTIC *     CLOUDY    48  41  76 N9        29.98R
AUDUBON *      CLOUDY    46  41  81 N7        29.99R
CLARINDA *     CLOUDY    48  43  81 NE10      29.99S
COUNCIL BLFS *   N/A     48  43  81 NE8       29.98S
CRESTON *      CLOUDY    48  43  81 N9        29.97S
HARLAN  *      CLOUDY    46  43  87 N6        30.01S
LAMONI         CLOUDY    47  45  93 N7        29.95R
6HR MIN TEMP:  44; 6HR MAX TEMP:  47;

RED OAK *      CLOUDY    48  41  76 N8        29.98R
SHENANDOAH *   CLOUDY    50  43  76 NE10      29.98S
$$

IAZ047>049-059>061-072>074-084-271900-
   CENTRAL IOWA

CITY           SKY/WX    TMP DP  RH WIND       PRES   REMARKS
AMES           CLOUDY    47  42  83 N9        29.97R
6HR MIN TEMP:  41; 6HR MAX TEMP:  48;

ANKENY *       CLOUDY    46  43  87 N7        29.97R
BOONE *        CLOUDY    45  43  93 N8        29.96R
CHARITON *     PTSUNNY   46  45  93 N7        29.95R FOG
DES MOINES     CLOUDY    48  42  80 N6        29.96F
6HR MIN TEMP:  43; 6HR MAX TEMP:  49;

GRINNELL*      CLOUDY    46  43  89 N7        29.97R
MARSHALLTOWN   CLOUDY    45  43  93 N8        29.95R
6HR MIN TEMP:  41; 6HR MAX TEMP:  45;

NEWTON *       CLOUDY    46  43  87 N5        29.95R
PELLA *        CLOUDY    47  44  91 N5        29.96R FOG
PERRY *        CLOUDY    47  42  84 N10       29.97S
$$

IAZ004>006-015-016-023>025-035-036-271900-
   NORTH CENTRAL IOWA

CITY           SKY/WX    TMP DP  RH WIND       PRES   REMARKS
ALGONA *       CLOUDY    46  41  81 N8        29.97S
CLARION *      CLOUDY    45  43  93 N7        29.97S
ESTHERVILLE    CLOUDY    46  39  76 N9        29.97S
6HR MIN TEMP:  37; 6HR MAX TEMP:  47;

FORT DODGE *   CLOUDY    46  37  71 NE7       29.97S
MASON CITY     CLOUDY    45  38  76 N5        29.98R
6HR MIN TEMP:  37; 6HR MAX TEMP:  45;

FOREST CITY *  CLOUDY    45  39  81 N7        29.97R
WEBSTER CITY * CLOUDY    46  39  76 N6        29.95S
IOWA FALLS *   CLOUDY    46  41  82 N5        29.97S
$$

IAZ007>011-017>019-026>030-037>042-050>054-066-271900-
   NORTHEAST IOWA

CITY           SKY/WX    TMP DP  RH WIND       PRES   REMARKS
CEDAR RAPIDS   CLOUDY    48  45  89 NW3       29.93S
6HR MIN TEMP:  42; 6HR MAX TEMP:  48; 6HR PCP: TRACE;

CHARLES CITY * CLOUDY    45  43  93 N8        29.97R
CLINTON *      CLOUDY    51  45  79 SE6       29.93F
DECORAH *      CLOUDY    45  41  87 NE3       29.94S
DUBUQUE        CLOUDY    48  43  82 CALM      29.94R
6HR MIN TEMP:  41; 6HR MAX TEMP:  48;

MONTICELLO *   CLOUDY    50  43  76 N5        29.93S
OELWEIN *      CLOUDY    46  45  93 N5        29.96R
WATERLOO       CLOUDY    47  40  76 N7        29.96R
6HR MIN TEMP:  41; 6HR MAX TEMP:  47;

$$

IAZ064-065-067-068-078-271900-
   EAST CENTRAL IOWA

CITY           SKY/WX    TMP DP  RH WIND       PRES   REMARKS
DAVENPORT      CLOUDY    50  45  83 E8        29.93F
6HR MIN TEMP:  46; 6HR MAX TEMP:  50; 6HR PCP: TRACE;

IOWA CITY      CLOUDY    52  44  74 CALM      29.94S
6HR MIN TEMP:  47; 6HR MAX TEMP:  53; 6HR PCP:  0.01;

MUSCATINE *    CLOUDY    52  46  82 CALM      29.93F
QUAD CITIES    CLOUDY    52  45  77 E6        29.92S
6HR MIN TEMP:  48; 6HR MAX TEMP:  52;

$$

IAZ062-063-075>077-085>089-095>099-271900-
   SOUTHEAST IOWA

CITY           SKY/WX    TMP DP  RH WIND       PRES   REMARKS
BURLINGTON     CLOUDY    51  49  92 E6        29.91F
6HR MIN TEMP:  47; 6HR MAX TEMP:  52; 6HR PCP:  0.03;

FAIRFIELD *    CLOUDY    50  45  81 CALM      29.93S
FORT MADISON * DRIZZLE   52  52 100 E6        29.91F
KEOKUK *       CLOUDY    52  50  93 E8        29.90F
OSKALOOSA *    CLOUDY    49  44  85 N7        29.94R
CENTERVILLE *  CLOUDY    46  46 100 CALM      29.94S
OTTUMWA        CLOUDY    50  46  86 N3        29.93R
6HR MIN TEMP:  45; 6HR MAX TEMP:  50;

WASHINGTON *   CLOUDY    50  48  93 CALM      29.94S FOG
$$

ABBREVIATIONS USED IN REMARKS
   TC - TEMPERATURES IN CELSIUS
  WCI - WIND CHILL INDEX
   HX - HEAT INDEX
  VSB - VISIBILITY
$$





USA.gov is the U.S. government's official web portal to all federal, state and local government web resources and services.